Dades meteomassalio
Diari Summary for Nil La, TWC- Units:  Metric    English   Both
« Previous Day
Next Day »
Diari Semanal Mensual Anual Personalitzat
  Maxima: Minima: Mijana:
Temperatura: -17.8 °C -13.8 °C -13.2 °C
Rosada: -17.8 °C -15.7 °C -15.3 °C
Humitat: Humidity % 75 % 76 %
Velocitat del vent: 0 km/h 20.8 km/h 29.5 km/h
Racha vent: 0 km/h - -
Vent:- - NW
Pressio: 0 hPa 34554.1 hPa -
Pluja: 0 mm    
Historical Graphs
 
 
Tabular Data for Nil La, TWC-
Time Temperature Dew Point Pressure Wind Wind Speed Wind Gust Humidity Rainfall Rate (Hourly) solar Conditions
-17.8 °C -17.8 °C 0 hPa Calm     Humidity % 0 mm SolarRadiationWatts/m^2 W/m2 Conditions
00:01 -13.2 °C -15.2 °C 34625.2 hPa NW 26.9 km/h 26.9 km/h 77 % 0 mm 0.0 W/m2 CLR
00:06 -13.2 °C -15.2 °C 34625.2 hPa NW 29.8 km/h 29.8 km/h 77 % 0 mm 0.0 W/m2 CLR
00:11 -13.2 °C -15.4 °C 34625.2 hPa WNW 32.8 km/h 32.8 km/h 76 % 0 mm 0.0 W/m2 CLR
00:16 -13.2 °C -15.2 °C 34625.2 hPa NW 26.9 km/h 26.9 km/h 77 % 0 mm 0.0 W/m2 CLR
00:21 -12.8 °C -14.9 °C 34625.2 hPa NW 29.8 km/h 29.8 km/h 77 % 0 mm 0.0 W/m2 CLR
00:26 -12.8 °C -14.9 °C 34625.2 hPa WNW 20.9 km/h 20.9 km/h 77 % 0 mm 0.0 W/m2 CLR
00:31 -13.2 °C -15.2 °C 34625.2 hPa NW 32.8 km/h 32.8 km/h 77 % 0 mm 0.0 W/m2 CLR
00:36 -13.2 °C -15.4 °C 34625.2 hPa WNW 29.8 km/h 29.8 km/h 76 % 0 mm 0.0 W/m2 CLR
00:41 -13.2 °C -15.4 °C 34625.2 hPa NW 29.8 km/h 29.8 km/h 76 % 0 mm 0.0 W/m2 CLR
00:46 -13.2 °C -15.4 °C 34625.2 hPa WNW 33.6 km/h 33.6 km/h 76 % 0 mm 0.0 W/m2 CLR
00:51 -12.8 °C -15.1 °C 34611.7 hPa NW 29.8 km/h 29.8 km/h 76 % 0 mm 0.0 W/m2 CLR
00:56 -13.2 °C -15.4 °C 34611.7 hPa NW 31.1 km/h 31.1 km/h 76 % 0 mm 0.0 W/m2 CLR
01:01 -13.2 °C -15.4 °C 34611.7 hPa WNW 29.8 km/h 29.8 km/h 76 % 0 mm 0.0 W/m2 CLR
01:06 -13.2 °C -15.4 °C 34611.7 hPa NW 29.8 km/h 29.8 km/h 76 % 0 mm 0.0 W/m2 CLR
01:11 -13.2 °C -15.4 °C 34611.7 hPa West 32.8 km/h 32.8 km/h 76 % 0 mm 0.0 W/m2 CLR
01:16 -13.2 °C -15.4 °C 34611.7 hPa NW 29.8 km/h 29.8 km/h 76 % 0 mm 0.0 W/m2 CLR
01:21 -12.8 °C -15.1 °C 34611.7 hPa NW 25.9 km/h 25.9 km/h 76 % 0 mm 0.0 W/m2 CLR
01:26 -12.8 °C -15.1 °C 34611.7 hPa WNW 31.1 km/h 31.1 km/h 76 % 0 mm 0.0 W/m2 CLR
01:31 -12.8 °C -15.1 °C 34611.7 hPa NW 29.8 km/h 29.8 km/h 76 % 0 mm 0.0 W/m2 CLR
01:36 -12.8 °C -15.1 °C 34611.7 hPa NW 28.5 km/h 28.5 km/h 76 % 0 mm 0.0 W/m2 CLR
01:41 -12.8 °C -15.1 °C 34611.7 hPa NW 29.8 km/h 29.8 km/h 76 % 0 mm 0.0 W/m2 CLR
01:46 -12.8 °C -15.1 °C 34601.5 hPa WNW 26.9 km/h 26.9 km/h 76 % 0 mm 0.0 W/m2 CLR
01:51 -12.8 °C -15.2 °C 34601.5 hPa WNW 29.8 km/h 29.8 km/h 75 % 0 mm 0.0 W/m2 CLR
01:56 -12.8 °C -15.1 °C 34601.5 hPa NW 29.8 km/h 29.8 km/h 76 % 0 mm 0.0 W/m2 CLR
02:01 -12.8 °C -15.1 °C 34601.5 hPa NW 32.8 km/h 32.8 km/h 76 % 0 mm 0.0 W/m2 CLR
02:06 -12.8 °C -15.1 °C 34601.5 hPa NW 29.8 km/h 29.8 km/h 76 % 0 mm 0.0 W/m2 CLR
02:11 -12.8 °C -15.1 °C 34591.4 hPa NW 29.8 km/h 29.8 km/h 76 % 0 mm 0.0 W/m2 CLR
02:16 -12.8 °C -15.1 °C 34591.4 hPa NW 35.7 km/h 35.7 km/h 76 % 0 mm 0.0 W/m2 CLR
02:21 -12.8 °C -15.1 °C 34591.4 hPa NW 35.7 km/h 35.7 km/h 76 % 0 mm 0.0 W/m2 CLR
02:26 -12.8 °C -15.1 °C 34591.4 hPa NNW 38.8 km/h 38.8 km/h 76 % 0 mm 0.0 W/m2 CLR
02:31 -12.8 °C -15.1 °C 34591.4 hPa WNW 33.6 km/h 33.6 km/h 76 % 0 mm 0.0 W/m2 CLR
02:37 -12.8 °C -15.1 °C 34591.4 hPa NW 32.8 km/h 32.8 km/h 76 % 0 mm 0.0 W/m2 CLR
02:42 -12.8 °C -15.1 °C 34591.4 hPa NW 29.8 km/h 29.8 km/h 76 % 0 mm 0.0 W/m2 CLR
02:47 -12.8 °C -15.1 °C 34591.4 hPa NNW 26.9 km/h 26.9 km/h 76 % 0 mm 0.0 W/m2 CLR
02:52 -12.8 °C -14.9 °C 34591.4 hPa NW 29.8 km/h 29.8 km/h 77 % 0 mm 0.0 W/m2 CLR
02:57 -12.8 °C -14.9 °C 34591.4 hPa NW 29.8 km/h 29.8 km/h 77 % 0 mm 0.0 W/m2 CLR
03:02 -12.8 °C -14.9 °C 34591.4 hPa NW 35.7 km/h 35.7 km/h 77 % 0 mm 0.0 W/m2 CLR
03:07 -12.8 °C -14.9 °C 34591.4 hPa NW 32.8 km/h 32.8 km/h 77 % 0 mm 0.0 W/m2 CLR
03:12 -12.8 °C -14.9 °C 34591.4 hPa NNW 29.8 km/h 29.8 km/h 77 % 0 mm 0.0 W/m2 CLR
03:17 -12.8 °C -14.9 °C 34591.4 hPa NW 38.8 km/h 38.8 km/h 77 % 0 mm 0.0 W/m2 CLR
03:22 -12.8 °C -14.9 °C 34577.8 hPa WNW 32.8 km/h 32.8 km/h 77 % 0 mm 0.0 W/m2 CLR
03:27 -12.8 °C -14.9 °C 34577.8 hPa NW 38.8 km/h 38.8 km/h 77 % 0 mm 0.0 W/m2 CLR
03:32 -12.8 °C -14.9 °C 34577.8 hPa NW 35.7 km/h 35.7 km/h 77 % 0 mm 0.0 W/m2 CLR
03:37 -12.8 °C -14.9 °C 34577.8 hPa NW 25.9 km/h 25.9 km/h 77 % 0 mm 0.0 W/m2 CLR
03:42 -12.8 °C -14.9 °C 34577.8 hPa NW 29.8 km/h 29.8 km/h 77 % 0 mm 0.0 W/m2 CLR
03:47 -12.8 °C -14.9 °C 34577.8 hPa NW 26.9 km/h 26.9 km/h 77 % 0 mm 0.0 W/m2 CLR
03:52 -12.8 °C -14.9 °C 34567.7 hPa WNW 38.8 km/h 38.8 km/h 77 % 0 mm 0.0 W/m2 CLR
03:57 -12.8 °C -14.9 °C 34567.7 hPa WNW 32.8 km/h 32.8 km/h 77 % 0 mm 0.0 W/m2 CLR
04:02 -13.2 °C -15.2 °C 34567.7 hPa NW 35.7 km/h 35.7 km/h 77 % 0 mm 0.0 W/m2 CLR
04:07 -13.2 °C -15.2 °C 34567.7 hPa NW 41.7 km/h 41.7 km/h 77 % 0 mm 0.0 W/m2 CLR
04:12 -13.2 °C -15.2 °C 34567.7 hPa NW 38.8 km/h 38.8 km/h 77 % 0 mm 0.0 W/m2 CLR
04:17 -13.2 °C -15.2 °C 34567.7 hPa NW 29.8 km/h 29.8 km/h 77 % 0 mm 0.0 W/m2 CLR
04:22 -13.2 °C -15.2 °C 34567.7 hPa NW 33.6 km/h 33.6 km/h 77 % 0 mm 0.0 W/m2 CLR
04:27 -13.2 °C -15.2 °C 34554.1 hPa WNW 38.8 km/h 38.8 km/h 78 % 0 mm 0.0 W/m2 CLR
04:32 -13.2 °C -15.2 °C 34554.1 hPa NNW 44.7 km/h 44.7 km/h 78 % 0 mm 0.0 W/m2 CLR
04:37 -13.2 °C -15.2 °C 34554.1 hPa NW 26.9 km/h 26.9 km/h 78 % 0 mm 0.0 W/m2 CLR
04:42 -13.2 °C -15.2 °C 34554.1 hPa NW 29.8 km/h 29.8 km/h 78 % 0 mm 0.0 W/m2 CLR
04:47 -13.4 °C -15.4 °C 34554.1 hPa NW 29.8 km/h 29.8 km/h 78 % 0 mm 0.0 W/m2 CLR
04:52 -13.4 °C -15.4 °C 34554.1 hPa WNW 23.8 km/h 23.8 km/h 78 % 0 mm 0.0 W/m2 CLR
04:57 -13.4 °C -15.4 °C 34567.7 hPa WNW 20.9 km/h 20.9 km/h 78 % 0 mm 0.0 W/m2 CLR
05:02 -13.4 °C -15.4 °C 34567.7 hPa WNW 28.5 km/h 28.5 km/h 78 % 0 mm 0.0 W/m2 CLR
05:12 -13.4 °C -15.4 °C 34567.7 hPa NW 28.5 km/h 28.5 km/h 78 % 0 mm 0.0 W/m2 CLR
05:17 -13.4 °C -15.4 °C 34567.7 hPa WNW 23.8 km/h 23.8 km/h 78 % 0 mm 0.0 W/m2 CLR
05:22 -13.4 °C -15.4 °C 34567.7 hPa NW 29.8 km/h 29.8 km/h 78 % 0 mm 0.0 W/m2 CLR
05:27 -13.8 °C -15.7 °C 34554.1 hPa WNW 23.8 km/h 23.8 km/h 78 % 0 mm 0.0 W/m2 CLR
05:32 -13.8 °C -15.7 °C 34567.7 hPa NW 26.9 km/h 26.9 km/h 78 % 0 mm 0.0 W/m2 CLR
05:37 -13.4 °C -15.4 °C 34554.1 hPa WNW 20.9 km/h 20.9 km/h 78 % 0 mm 0.0 W/m2 CLR
05:42 -13.4 °C -15.4 °C 34554.1 hPa NW 20.8 km/h 20.8 km/h 78 % 0 mm 0.0 W/m2 CLR
05:47 -13.8 °C -15.7 °C 34554.1 hPa NW 29.8 km/h 29.8 km/h 78 % 0 mm 0.0 W/m2 CLR
05:52 -13.4 °C -15.4 °C 34554.1 hPa WNW 26.9 km/h 26.9 km/h 78 % 0 mm 0.0 W/m2 CLR
05:57 -13.4 °C -15.4 °C 34567.7 hPa West 20.9 km/h 20.9 km/h 78 % 0 mm 0.0 W/m2 CLR
06:02 -13.4 °C -15.4 °C 34554.1 hPa WNW 23.8 km/h 23.8 km/h 78 % 0 mm 0.0 W/m2 CLR
06:07 -13.4 °C -15.4 °C 34554.1 hPa NW 20.9 km/h 20.9 km/h 78 % 0 mm 0.0 W/m2 CLR
06:12 -13.8 °C -15.7 °C 34567.7 hPa NW 29.8 km/h 29.8 km/h 78 % 0 mm 0.0 W/m2 CLR
06:17 -13.4 °C -15.4 °C 34554.1 hPa NW 26.9 km/h 26.9 km/h 78 % 0 mm 0.0 W/m2 CLR
06:22 -13.4 °C -15.4 °C 34554.1 hPa WNW 23.8 km/h 23.8 km/h 78 % 0 mm 0.0 W/m2 CLR
06:27 -13.4 °C -15.4 °C 34554.1 hPa WNW 25.9 km/h 25.9 km/h 78 % 0 mm 0.0 W/m2 CLR
06:32 -13.4 °C -15.4 °C 34554.1 hPa NW 20.9 km/h 20.9 km/h 78 % 0 mm 0.0 W/m2 CLR
06:37 -13.4 °C -15.4 °C 34567.7 hPa NW 31.1 km/h 31.1 km/h 78 % 0 mm 0.0 W/m2 CLR
06:42 -13.4 °C -15.4 °C 34554.1 hPa WNW 26.9 km/h 26.9 km/h 78 % 0 mm 0.0 W/m2 CLR
06:47 -13.4 °C -15.4 °C 34554.1 hPa NW 23.8 km/h 23.8 km/h 78 % 0 mm 0.0 W/m2 CLR
06:52 -13.4 °C -15.4 °C 34554.1 hPa WNW 29.8 km/h 29.8 km/h 78 % 0 mm 0.0 W/m2 CLR
Lo Temps de Massalio
Compliments of Weather Underground - 512 kb